THORAD DELTA 1 DEB, 8156

Orbit data source: Space-Track

THORAD DELTA 1 DEB, 8156 is space debris in SSO originally from a launch on Fri, 15 Nov 1974 UTC launched from the Air Force Western Test Range (AFWTR). Debris objects in space refer to the collection of defunct objects orbiting the Earth. Examples of debris include non-operational satellites, rocket bodies, and fragments generated from explosions, collisions, or faulty payload assembly.

Loading next visibility...
Identifier
8156, 1974-089W
Orbit
SSO
Country
Flag of USUS
Related business
Manufacturer
Unknown
Mission
Spacecraft
Bus & Motor
Unknown
Mass
Unknown
Launch date (UTC)
1974-11-15 (51 years ago)
Launch vehicle
Unknown
Launch site
Air Force Western Test Range (AFWTR)
Object type
Payload
Rocket body
Debris
Shape & HBR
Unknown shape, 0.1 m
Radar Cross Section
Small (<0.1 m²)

Expand to show TLE details & history
Last TLE update: 1 day ago

TLE from 1 day ago
0 THORAD DELTA 1 DEB
1 08156U 74089W   25349.88338480  .00000143  00000-0  98144-3 0  9990
2 08156 101.9144 328.3179 0056493   0.4502  27.9190 12.68240640360069
Epoch: 2025-12-15T21:12Z
TLE epoch observation values (Epoch: 2025-12-15T21:12:04.446Z)
Latitude
28.04364°
Longitude
-80.89729°
Altitude
1,353.561 km
Speed
7.202 km/s
True Right ascension
21h 27m 35s
True Declination
27° 54' 44"
Sunlit
Object was in daylight at epoch
Visualization orbit readout
Latitude
Unknown
Longitude
Unknown
Altitude
Unknown
Speed
Unknown
Apparent Right ascension
Unknown
Apparent Declination
Unknown
Sunlit
N/A
Visualization observer readout
Local Sidereal Time
20:31:24
Azimuth
Unknown
Elevation
Unknown
Doppler factor
Unknown
Orbital elements
Apogee altitude
1,430.513 km
Perigee altitude
1,342.782 km
Semi-major axis
7,764.785 km
Eccentricity
0.00565
Inclination
101.9144°
RAAN
328.3179°
Arg. of periapsis
0.4502°
True anomaly
28.22401°
Mean anomaly
27.919°
Eccentric anomaly
28.07131°
Mean motion
3.17212 °/min
Orbital period
113.49 mins
BSTAR
0.00098144
Loading maneuver chart data...
Computing Atmospheric mass density...

Documentation

Showing up to 5 results
|